Tracking 18793 objects as of 26-September-2017
HD Live streaming from Space Station
objects crossing your sky now

COSMOS 198

Track COSMOS 198 now!
10-day predictions
COSMOS 198 is classified as:


NORAD ID: 3081
Int'l Code: 1967-127A
Perigee: 904.5 km
Apogee: 944.5 km
Inclination: 65.1 °
Period: 103.4 minutes
Semi major axis: 7295 km
RCS: 2.5177 m2 (large)
Launch date: December 27, 1967
Source: Commonwealth of Independent States (former USSR) (CIS)
Launch site: TYURATAM MISSILE AND SPACE COMPLEX (TTMTR)
aabbcc
Your satellite tracking list
Your tracking list is empty





NASA's NSSDC Master Catalog

Two Line Element Set (TLE):
1  3081U 67127A   17268.73636752 -.00000069 +00000-0 +15714-4 0  9996
2  3081 065.1445 337.6292 0027407 195.0610 164.9643 13.93224296529654
Source of the keplerian elements: AFSPC